TimeCET,TemperatureF,Dew PointF,Humidity,Sea Level PressureIn,VisibilityMPH,Wind Direction,Wind SpeedMPH,Gust SpeedMPH,PrecipitationIn,Events,Conditions,WindDirDegrees,DateUTC
12:00 AM,53.6,53.6,100,29.77,3.7,Calm,Calm,-,N/A,Fog,Mostly Cloudy,0,2012-11-16 23:00:00
12:30 AM,53.6,53.6,100,29.77,3.1,Calm,Calm,-,N/A,Fog,Fog,0,2012-11-16 23:30:00
1:00 AM,53.6,53.6,100,29.77,2.5,Variable,1.2,-,N/A,,Mostly Cloudy,0,2012-11-17 00:00:00
1:30 AM,53.6,53.6,100,29.74,4.3,Calm,Calm,-,N/A,,Unknown,0,2012-11-17 00:30:00
2:00 AM,53.6,53.6,100,29.74,3.1,Calm,Calm,-,N/A,Rain,Light Rain,0,2012-11-17 01:00:00
2:30 AM,53.6,53.6,100,29.74,6.2,Calm,Calm,-,N/A,Fog-Rain,Light Rain,0,2012-11-17 01:30:00
3:00 AM,53.6,53.6,100,29.74,3.7,Calm,Calm,-,N/A,Fog-Rain,Light Rain,0,2012-11-17 02:00:00
3:30 AM,53.6,53.6,100,29.74,5.0,Variable,1.2,-,N/A,Fog-Rain,Light Rain,0,2012-11-17 02:30:00
4:00 AM,53.6,53.6,100,29.71,5.0,Variable,1.2,-,N/A,Fog,Fog,0,2012-11-17 03:00:00
4:30 AM,53.6,53.6,100,29.71,4.3,Variable,1.2,-,N/A,Fog,Fog,0,2012-11-17 03:30:00
4:39 AM,53.6,53.6,100,29.71,1.4,Variable,1.2,-,N/A,,Mostly Cloudy,0,2012-11-17 03:39:00
4:48 AM,51.8,51.8,100,29.71,0.5,Variable,2.3,-,N/A,Fog,Fog,0,2012-11-17 03:48:00
5:00 AM,51.8,51.8,100,29.71,0.4,Calm,Calm,-,N/A,Fog,Fog,0,2012-11-17 04:00:00
5:30 AM,51.8,51.8,100,29.71,0.4,Calm,Calm,-,N/A,Fog,Fog,0,2012-11-17 04:30:00
5:35 AM,51.8,51.8,100,29.71,2.5,Calm,Calm,-,N/A,Fog,Mostly Cloudy,0,2012-11-17 04:35:00
6:00 AM,53.6,53.6,100,29.71,6.2,Variable,2.3,-,N/A,Fog-Rain,Light Rain,0,2012-11-17 05:00:00
6:30 AM,53.6,53.6,100,29.71,6.2,East,3.5,-,N/A,Fog-Rain,Light Rain,100,2012-11-17 05:30:00
7:00 AM,53.6,53.6,100,29.71,6.2,ESE,3.5,-,N/A,Fog-Rain,Light Rain,110,2012-11-17 06:00:00
7:30 AM,53.6,53.6,100,29.71,6.2,Variable,2.3,-,N/A,Fog-Rain,Light Rain,0,2012-11-17 06:30:00
8:00 AM,53.6,53.6,100,29.71,6.2,Calm,Calm,-,N/A,Fog-Rain,Light Rain,0,2012-11-17 07:00:00
8:30 AM,51.8,51.8,100,29.74,1.1,Calm,Calm,-,N/A,Rain,Rain,0,2012-11-17 07:30:00
8:42 AM,51.8,51.8,100,29.74,0.5,Calm,Calm,-,N/A,Fog-Rain,Rain,0,2012-11-17 07:42:00
9:00 AM,51.8,51.8,100,29.74,0.9,Calm,Calm,-,N/A,Rain,Rain,0,2012-11-17 08:00:00
9:30 AM,51.8,51.8,100,29.74,1.9,Calm,Calm,-,N/A,Rain,Light Rain,0,2012-11-17 08:30:00
10:00 AM,51.8,51.8,100,29.74,1.9,Calm,Calm,-,N/A,Rain,Light Rain,0,2012-11-17 09:00:00
10:30 AM,51.8,51.8,100,29.77,1.9,Variable,1.2,-,N/A,Rain,Light Rain,0,2012-11-17 09:30:00
11:00 AM,51.8,51.8,100,29.77,1.9,Calm,Calm,-,N/A,Rain,Light Rain,0,2012-11-17 10:00:00
11:30 AM,53.6,53.6,100,29.77,1.2,Calm,Calm,-,N/A,Rain,Light Rain,0,2012-11-17 10:30:00
12:00 PM,51.8,51.8,100,29.77,0.6,NW,8.1,20.7,N/A,Rain,Light Rain,320,2012-11-17 11:00:00
12:30 PM,51.8,50.0,94,29.77,0.6,NNW,18.4,-,N/A,Rain,Light Rain,340,2012-11-17 11:30:00
1:00 PM,50.0,50.0,100,29.77,0.6,North,17.3,-,N/A,Rain,Light Rain,350,2012-11-17 12:00:00
1:30 PM,50.0,50.0,100,29.77,0.6,North,16.1,-,N/A,Fog-Rain,Light Rain,360,2012-11-17 12:30:00
2:00 PM,51.8,51.8,100,29.77,0.6,North,12.7,-,N/A,Fog-Rain,Light Rain,10,2012-11-17 13:00:00
2:30 PM,51.8,51.8,100,29.77,1.9,North,12.7,-,N/A,Fog-Rain,Light Rain,360,2012-11-17 13:30:00
3:00 PM,51.8,51.8,100,29.77,5.0,North,10.4,-,N/A,Fog-Rain,Light Rain,360,2012-11-17 14:00:00
3:30 PM,50.0,50.0,100,29.80,5.0,North,11.5,-,N/A,Fog-Rain,Light Rain,360,2012-11-17 14:30:00
4:00 PM,51.8,51.8,100,29.80,5.0,North,10.4,-,N/A,Fog-Rain,Light Rain,10,2012-11-17 15:00:00
4:30 PM,51.8,51.8,100,29.80,5.6,North,9.2,-,N/A,Rain,Light Rain,360,2012-11-17 15:30:00
5:00 PM,51.8,51.8,100,29.83,5.6,North,9.2,-,N/A,Rain,Light Rain,360,2012-11-17 16:00:00
5:30 PM,51.8,51.8,100,29.83,3.1,North,6.9,-,N/A,Rain,Light Rain,360,2012-11-17 16:30:00
6:00 PM,51.8,51.8,100,29.83,3.1,North,16.1,-,N/A,Rain,Light Rain,360,2012-11-17 17:00:00
6:30 PM,50.0,50.0,100,29.83,1.9,North,18.4,-,N/A,Rain,Light Rain,360,2012-11-17 17:30:00
7:00 PM,50.0,50.0,100,29.86,1.9,North,15.0,-,N/A,,Mostly Cloudy,360,2012-11-17 18:00:00
7:30 PM,50.0,50.0,100,29.86,1.9,North,16.1,-,N/A,,Mostly Cloudy,360,2012-11-17 18:30:00
8:00 PM,50.0,50.0,100,29.89,1.9,North,12.7,-,N/A,,Mostly Cloudy,10,2012-11-17 19:00:00
8:30 PM,50.0,50.0,100,29.89,1.9,North,15.0,26.5,N/A,,Mostly Cloudy,10,2012-11-17 19:30:00
9:00 PM,50.0,50.0,100,29.92,3.1,North,15.0,-,N/A,,Mostly Cloudy,10,2012-11-17 20:00:00
9:30 PM,50.0,50.0,100,29.92,3.1,North,10.4,-,N/A,,Mostly Cloudy,360,2012-11-17 20:30:00
10:00 PM,50.0,50.0,100,29.92,3.1,North,11.5,-,N/A,,Mostly Cloudy,360,2012-11-17 21:00:00
10:30 PM,50.0,48.2,94,29.95,5.0,North,9.2,-,N/A,,Mostly Cloudy,360,2012-11-17 21:30:00
11:30 PM,48.2,46.4,93,29.95,5.0,North,12.7,-,N/A,,Mostly Cloudy,10,2012-11-17 22:30:00